Ashgabat Airport

Jump to: basic info | weather | frequencies | runways | comments

Related pages: nearby airports | nearby navaids | notams | map

Basic information (top)

Codes: ASB UTAA
Location: lon 37.986801, lat 58.361000, elev 692 ft / 211 m msl
Status: medium_airport
Scheduled airline service: yes
Links: Wikipedia Mobile

Weather (top)

Current conditions (rec'd 2014/10/22 12:00Z):

UTAA 221200Z 21004MPS 9999 SCT050 SCT100 BKN230 16/12 Q1014 R12/150065 NOSIG

Airport forecast (rec'd 2014/10/22 09:06Z):

TAF TAF UTAA 220730Z 2209/2221 35008MPS 5000 BKN020 SCT030CB 530005 
      TEMPO 2209/2215 27007G12MPS 3000 -RA OVC010 PROB40 
      TEMPO 2209/2215 VRB15MPS TS

Frequencies (top)

Verify before use: may be inaccurate or out of date.

APP: 123.5 MHz (APP)
GCA: 118.7 MHz (APP)
GND: 121.7 MHz (GND)
TWR: 120 MHz (TWR)

Runways (top)

11/29: 5,907 x 114 ft (1,800 x 35 m) — paved — not lighted — threshold 11 displaced 990 ft (302 m) — threshold 29 displaced 1,965 ft (599 m)

12L/30R: 12,467 x 151 ft (3,800 x 46 m) — paved — lighted

12R/30L: 9,806 x 196 ft (2,989 x 60 m) — paved — lighted

Latest comments (top)

Lol: Lol [read]

can duty free liquor purchased in UK be transferred via Ashg: I am flying to Amirtsar with T5 but not ... [read]

More... (top)

See also NOTAMs and nearby airports and navaids, or visit the Ashgabat Airport page at the main OurAirports website..